#timestamp,LO_Frequency,Hit,StdDev 
1524538815.7,286047002.9,N
1524538835.5,286047003.8,N
1524538855.4,286047001.4,N
1524538875.2,286047002.5,N
1524538895.1,286047002.8,N
1524538896.0,286047002.8,N
1524538915.8,286046998.9,N
1524538935.6,286046998.2,N
1524538955.5,286046998.6,N
1524538975.3,286047000.6,N
1524538995.1,286047000.7,N
1524539015.9,286047000.2,N
1524539035.7,286047002.7,N
1524539055.6,286047000.1,N
1524539075.4,286047000.3,N
1524539095.2,286047001.2,N
1524539115.1,286046998.5,N
1524539116.0,286046998.5,N
1524539135.8,286046999.0,N
1524539155.6,286047000.8,N
1524539175.5,286046998.5,N
1524539195.3,286046998.9,N
1524539215.2,286046999.3,N
1524539235.9,286047001.2,N
1524539255.7,286047000.8,N
1524539275.6,286047000.6,N
1524539295.4,286047000.6,N
1524539315.2,286047001.0,N
1524539335.1,286047000.2,N
1524539336.0,286047000.2,N
1524539355.8,286047001.7,N
1524539375.7,286047001.3,N
1524539395.5,286047005.8,Y
1524539415.3,286047005.6,P
1524539435.2,286047006.0,N
1524539455.0,286047003.9,N
1524539455.9,286047003.9,N
1524539475.8,286047005.0,N
1524539495.6,286047007.0,Y
1524539515.4,286047004.4,P
1524539535.3,286047001.4,P
1524539555.1,286047002.5,N
1524539575.9,286047000.2,N
1524539595.7,286047000.2,N
1524539615.5,286046998.5,N
1524539635.4,286046998.2,N
1524539655.2,286046999.8,N
1524539675.0,286047000.2,N
1524539675.9,286047000.2,N
1524539695.8,286047000.6,N
1524539715.6,286047000.3,N
1524539735.5,286047000.5,N
1524539755.3,286047000.5,N
1524539775.1,286046998.8,N
1524539795.9,286046998.6,N
1524539815.7,286047000.0,N
1524539835.5,286047002.6,N
1524539855.4,286047001.7,N
1524539875.2,286047002.5,N
1524539895.1,286046999.9,N
1524539896.0,286046999.9,N
1524539915.8,286047000.4,N
1524539935.6,286047000.9,N
1524539955.5,286046998.4,N
1524539975.3,286047000.5,N
1524539995.1,286046998.2,N
1524540015.9,286047000.5,N
1524540035.7,286047001.1,N
1524540055.6,286047000.9,N
1524540075.4,286047001.3,N
1524540095.2,286047002.0,N
1524540115.1,286047001.9,N
1524540116.0,286047001.9,N
1524540135.8,286046999.8,N
1524540155.7,286047002.1,N
1524540175.5,286047003.6,N
1524540195.3,286047003.8,Y
1524540215.2,286047003.7,P
1524540235.0,286047003.5,N
1524540235.9,286047003.5,N
1524540255.8,286047004.0,Y
1524540275.6,286047000.1,P
1524540295.4,286047002.5,N
1524540315.3,286047000.5,N
1524540335.1,286047000.0,N
1524540355.8,286047000.2,N
1524540375.7,286047001.0,N
1524540395.5,286047000.3,N
1524540415.4,286047001.1,N
1524540435.2,286046998.6,N
1524540455.0,286046998.7,N
1524540455.9,286046998.7,N
1524540475.8,286046999.6,N
1524540495.6,286047001.0,N
1524540515.4,286046998.2,N
1524540535.3,286046998.3,N
1524540555.1,286046999.9,N
1524540575.9,286046999.7,N
1524540595.7,286047000.6,N
1524540615.5,286047000.2,N
1524540635.4,286047002.8,N
1524540655.2,286047000.7,N
1524540675.0,286046998.8,N
1524540675.9,286046998.8,N
1524540695.8,286046999.0,N
1524540715.6,286046998.2,N
1524540735.5,286046998.5,N
1524540755.3,286047000.2,N
1524540775.1,286047000.5,N
1524540795.9,286047002.6,N
1524540815.7,286047001.3,N
1524540835.5,286047002.2,N
1524540855.4,286047001.5,N
1524540875.2,286047002.2,N
1524540895.1,286047002.5,N
1524540896.0,286047002.5,N
1524540915.8,286047002.5,N
1524540935.6,286047000.2,N
1524540955.5,286047001.3,N
1524540975.3,286047002.0,N
1524540995.1,286047001.6,N
1524541015.9,286047002.8,N
1524541035.7,286047001.9,N
1524541055.6,286047001.6,N
1524541075.4,286047003.9,N
1524541095.2,286047004.2,N
1524541115.1,286047003.1,N
1524541116.0,286047003.1,N
1524541135.8,286047005.6,Y
1524541155.7,286047006.0,P
1524541175.5,286047003.4,N
1524541195.3,286047001.8,N
1524541215.2,286047001.9,N
1524541235.0,286047003.7,N
1524541235.9,286047003.7,N
1524541255.7,286047003.3,N
1524541275.6,286047004.0,N
1524541295.4,286047004.0,N
1524541315.3,286046999.8,N
1524541335.1,286047001.6,N
1524541355.8,286047002.2,N
1524541375.7,286047002.1,N
1524541395.5,286047001.6,N
1524541415.4,286047000.5,N
1524541435.2,286046999.9,N
1524541455.0,286047000.4,N
1524541455.9,286047000.4,N
1524541475.8,286047000.3,N
1524541495.6,286047002.0,N
1524541515.4,286047002.6,N
1524541535.3,286047002.5,N
1524541555.1,286047001.7,N
1524541575.9,286047001.7,N
1524541595.7,286046999.9,N
1524541615.5,286047002.6,N
1524541635.4,286047003.3,N
1524541655.2,286047001.4,N
1524541675.0,286047003.3,N
1524541675.9,286047003.3,N
1524541695.8,286047003.3,N
1524541715.6,286047005.4,Y
1524541735.5,286047001.5,P
1524541755.3,286047002.1,P
1524541775.1,286046999.8,N
1524541795.9,286047004.4,Y
1524541815.7,286046999.9,P
1524541835.6,286046999.7,N
1524541855.4,286046999.8,N
1524541875.2,286047000.0,N
1524541895.1,286046999.8,N
1524541896.0,286046999.8,N
1524541915.8,286046999.8,N
1524541935.6,286047000.4,N
1524541955.5,286047002.8,Y
1524541975.3,286047001.7,P
1524541995.2,286047000.4,N
1524542015.9,286046999.9,N
1524542035.7,286047000.2,N
1524542055.6,286047000.4,N
1524542075.4,286046998.5,N
1524542095.2,286046998.2,N
1524542115.1,286047000.0,N
1524542116.0,286047000.0,N
1524542135.8,286047000.4,N
1524542155.7,286047001.1,N
1524542175.5,286047001.0,N
1524542195.3,286046999.7,N
1524542215.2,286046999.9,N
1524542235.0,286047000.6,N
1524542235.9,286047000.6,N
1524542255.8,286047002.6,Y
1524542275.6,286046999.7,P
1524542295.4,286047001.4,P
1524542315.3,286047001.8,N
1524542335.1,286047002.2,N
1524542355.8,286047001.4,N
1524542375.7,286047004.0,Y
1524542395.5,286047001.6,P
